{"data":{"norad_id":54791,"epoch":"2026-09-19T21:59:25.805760Z","epoch_age_seconds":140273,"freshness":"FRESH","line1":"1 54791U 22175AK  26262.91627090  .00000472  00000+0  25104-4 0  9993","line2":"2 54791  53.1600 222.3387 0001298  92.1593 267.9559 15.34390722209650","mean_motion":15.34390722,"eccentricity":0.0001298,"inclination_deg":53.16,"raan_deg":222.3387,"arg_perigee_deg":92.1593,"mean_anomaly_deg":267.9559,"bstar":2.5104e-5,"rev_number":20965,"period_min":93.84832555055,"perigee_km":461.84287187473,"apogee_km":463.61876115989,"semimajor_km":6840.8678165173,"source":"CELESTRAK","updated_at":"2026-09-21T09:00:33.126897Z"}}